Location: Cerezo de Arriba
(41.2389°N, 3.5585°W)
Time: 04:36:26
(UTC+00:00)

Feng Yun 1-1 Rocket - Pass Details

Date: 19 May 2025
Orbit: 829 x 932 km, 99.0° (Epoch: 23 June)

Event Time Altitude Azimuth Distance (km) Brightness Sun altitude
Exits shadow 20:03:57 - 158° (SSE) 3,303 6.8 -6.3°
Reaches altitude 10° 20:05:59 10° 156° (SSE) 2,509 6.2 -6.6°
Maximum altitude 20:11:33 73° 73° (ENE) 929 4.3 -7.5°
Drops below altitude 10° 20:17:18 10° 350° (N) 2,594 7.5 -8.4°
Sets 20:19:45 0° 349° (NNW) 3,553 8.3 -8.7°
